Location: Saratoga Springs
(43.0831°N, 73.7850°W)
Time: 21:26:51
(UTC-04:00)

A-11 Canister half - Pass Details

Date: 17 April 2024
Orbit: 1514 x 1685 km, 47.2° (Epoch: 23 May)

Event Time Altitude Azimuth Distance (km) Brightness Sun altitude
Rises 20:34:57 0° 291° (WNW) 4,825 13.9 -10.1°
Reaches altitude 10° 20:39:06 10° 276° (W) 3,865 12.4 -10.7°
Maximum altitude 20:45:38 20° 234° (SW) 3,160 11.0 -11.8°
Drops below altitude 10° 20:52:16 10° 191° (SSW) 3,923 11.0 -12.9°
Sets 20:56:35 0° 176° (S) 4,919 11.3 -13.6°
